STARLINK-1109, 44945

Orbit data source: Space-Track

STARLINK-1109, 44945 is a payload satellite owned by SpaceX/Seattle (US) in LEO that was launched on Tue, 07 Jan 2020 UTC via an FALCON 9 launch vehicle from the Air Force Eastern Test Range (AFETR). Payloads include a variety of satellites, spacecraft, and rockets equipped with specific instruments for various scientific and technological missions. These include communications satellites like Starlink; space stations such as the ISS; scientific satellites like the Hubble; Earth observation satellites from companies like Planet Labs, Umbra, and HawkEye 360; GPS; miniature CubeSats for education and research; and military/defense satellites.

Loading next visibility...
STARLINK-1109 details
Identifier
44945, 2020-001AH
Orbit
LEO
Last TLE update23 hours ago
Origin
Flag of USSpaceX/Seattle (US)
ManufacturerSpaceX/Seattle
MissionPartially operational Commercial Communications
Bus & MotorSTARLINK, Unknown motor
Mass260 kg wet, ~248 kg dry
Launch date (UTC)
2020-01-07 (5 years ago)
Launch vehicle
FALCON 9
Launch site
Air Force Eastern Test Range (AFETR)
Object type
Payload
Rocket body
Debris
Shape & HBRBox + 1 Pan, 8.86 m
Radar Cross Section13.562 m², Large (>1 m²)

Expand to show TLE details & history

TLE from 23 hours ago
0 STARLINK-1109
1 44945U 20001AH  24360.52223563  .00001238  00000-0  29190-4 0  9991
2 44945  53.0566 124.9927 0001085 102.1809 257.9321 15.50482529274117
Epoch: 2024-12-25T12:32Z
Definitive object data (Epoch: 2024-12-25T12:32:01.158Z)
Latitude-0°
Longitude-157.5269°
Altitude416.367 km
Speed7.662 km/s
True Right ascension08h 19m 58s
True Declination0° 00' 00"
Sunlit
Object was in full shadow at TLE epoch
Visualization TLE readout
Latitude-27.15086°
Longitude40.50621°
Altitude423.602 km
Speed7.657 km/s
Apparent Right ascension21h 57m 07s
Apparent Declination-33° 21' 09"
Sunlit
Object is in daylight
Visualization observer readout
Local Sidereal Time10:28:05
Azimuth45.799° ENE
Elevation-80.97°
Doppler factor1
Orbital elements
Apogee altitude416.329 km
Perigee altitude414.855 km
Semi-major axis6,793.729 km
Eccentricity0.0001085
Inclination53.0566°
RAAN124.9927°
Arg. of periapsis102.1809°
True anomaly257.91994°
Mean anomaly257.9321°
Eccentric anomaly257.92602°
Mean motion3.87597 °/min
BSTAR0.00002919
Orbital period92.88 mins
Loading maneuver chart data...

STARLINK-1109 Visibility forecast

Observer location: undefined°, undefined

Span
Click to sort rows by Start time (UTC) header in descending order
Start Az.
Max El. time (UTC)
Max El. Az.
Max El.
End time (UTC)
End Az.
5 mins2024-12-26 11:57:47.699Z269.687° W2024-12-26 11:59:47.699Z325.742° NNW29.193°2024-12-26 12:02:47.699Z34.346° NE
4 mins2024-12-26 18:27:47.699Z281.591° WNW2024-12-26 18:29:47.699Z203.871° SW31.717°2024-12-26 18:31:47.699Z159.136° S
|